Theta_e
348 348 348 352 353 352 348 343 342 343 345 344 342 341 346 352 352 351 351 350 352 350 348 347 352 347 346 345 349 352 351 351 351 351 352 351 350 350 350 350 347 349 349
347 348 349 352 353 353 349 344 342 341 342 343 343 343 350 352 352 350 351 352 350 352 353 353 352 352 352 352 352 353 351 352 350 352 352 352 351 351 351 350 346 348 349
348 349 350 351 353 353 351 347 346 350 351 346 347 346 352 353 348 347 352 353 352 353 351 353 352 351 350 350 351 352 351 352 351 351 347 349 348 350 350 350 349 346 346
349 351 350 348 350 353 353 353 352 352 353 352 349 350 353 353 350 353 354 353 353 353 352 352 352 352 352 352 350 349 348 350 348 345 348 347 350 348 350 349 349 349 348
349 350 352 349 351 353 353 353 353 353 353 353 353 353 353 352 354 353 352 353 353 351 352 353 352 351 350 350 349 348 346 346 345 344 346 348 348 350 348 346 347 347 346
349 350 352 351 351 352 353 353 353 353 352 351 350 347 354 354 353 354 352 351 352 351 352 352 352 352 350 348 343 343 343 343 344 343 338 341 347 349 348 348 349 348 347
349 351 351 351 350 350 352 353 352 351 348 350 350 350 352 354 354 354 352 349 352 352 351 352 351 351 350 346 345 345 343 343 343 342 341 334 335 342 344 348 348 348 347
351 352 351 350 350 351 353 353 352 351 349 353 351 351 354 351 353 354 352 350 349 351 351 351 348 346 346 346 344 342 339 339 342 343 342 340 335 339 345 344 345 345 347
347 349 348 349 348 351 353 354 353 352 352 348 353 353 349 352 353 353 353 351 349 347 349 350 348 348 349 347 347 344 339 337 338 339 341 342 339 339 344 344 346 347 345
342 345 342 351 353 354 352 353 353 352 348 353 353 353 352 353 353 353 352 352 353 353 351 350 348 348 344 343 342 341 339 337 336 337 336 340 341 339 345 347 346 347 344
342 348 348 352 352 349 350 351 352 352 351 352 350 350 350 343 342 345 345 350 351 350 350 349 346 344 340 338 338 342 346 339 332 335 338 338 339 340 344 348 348 347 348
345 346 350 351 351 350 351 351 351 350 349 350 349 348 344 340 338 336 338 346 349 349 350 349 346 343 343 339 337 339 340 335 336 336 335 340 338 337 341 344 348 348 348
344 347 350 350 351 350 350 349 351 351 351 350 345 344 342 337 335 334 340 344 344 345 345 345 345 344 343 343 342 343 340 342 342 341 337 338 337 336 339 344 343 348 348
345 343 346 347 348 347 344 344 348 349 348 348 346 342 341 338 335 334 335 340 341 341 341 337 337 338 336 335 340 344 344 343 343 343 341 340 340 340 339 340 342 342 348
347 346 346 346 348 345 342 342 341 342 342 342 344 340 338 336 336 335 334 335 336 337 338 338 337 335 335 336 339 342 343 342 342 342 342 341 342 340 341 343 343 342 347
348 349 348 346 342 346 344 343 344 344 343 344 344 343 341 340 336 337 336 335 336 335 334 334 335 337 341 342 340 342 343 343 343 343 342 342 342 342 342 342 342 343 347
348 348 349 348 347 346 344 345 346 343 343 344 343 344 344 343 342 337 339 336 339 340 339 340 342 342 342 342 343 342 342 343 343 343 342 341 341 342 342 343 342 342 344
345 348 348 348 348 348 347 346 347 343 341 342 341 339 341 345 346 345 341 341 341 341 343 344 343 343 344 344 343 342 342 342 342 342 342 343 343 342 341 342 344 343 343
341 341 346 347 348 348 348 348 348 348 344 343 343 342 342 344 346 345 343 343 343 341 341 342 342 344 345 345 345 344 344 343 342 342 342 343 342 343 341 340 342 344 344
347 346 345 347 347 348 348 348 348 348 349 348 346 345 345 344 346 346 346 344 344 343 343 342 344 344 345 345 345 345 344 344 343 343 343 342 341 343 343 340 342 343 346
346 345 346 346 346 347 348 347 347 347 347 347 347 347 348 347 347 346 346 345 345 344 344 344 342 347 347 346 345 346 345 343 342 342 343 342 340 342 341 341 342 344 344
346 345 345 345 345 346 347 347 347 347 347 347 349 349 348 346 348 349 349 349 347 346 345 346 346 345 347 345 346 344 345 342 342 343 343 342 342 342 342 342 341 342 345
346 345 345 345 346 346 347 347 348 349 349 349 351 352 352 350 349 349 349 349 348 349 348 348 349 349 348 347 347 345 345 345 341 343 344 344 343 342 343 342 341 341 342
345 346 346 345 345 346 347 348 347 349 351 349 351 354 355 356 353 352 351 350 349 348 349 348 350 350 349 347 346 346 346 342 348 348 343 343 343 344 344 344 343 343 343
347 346 345 346 347 346 346 347 348 348 350 351 356 356 355 353 352 352 353 353 353 351 349 348 349 351 351 349 347 346 346 344 344 343 348 344 343 344 344 344 345 346 346
351 349 350 351 350 351 348 349 350 352 352 357 355 355 354 353 352 353 352 353 353 351 350 349 348 350 350 349 349 348 348 346 345 344 345 345 345 344 345 345 346 345 345
Wind_Speed
13 17 19 22 22 22 22 23 23 23 23 22 22 20 18 17 17 16 14 12 12 12 14 14 13 14 14 14 13 14 14 14 13 12 12 12 11 12 11 11 12 11 11
20 18 20 21 21 20 21 22 21 21 21 21 22 22 19 18 17 16 14 14 14 13 13 14 14 14 14 13 13 14 13 14 14 13 12 11 10 11 10 10 11 10 9
21 19 21 20 20 20 20 21 21 20 19 20 20 19 17 15 16 14 16 13 15 14 14 14 15 15 15 15 14 13 12 11 10 10 10 12 9 9 9 9 8 7 8
21 21 21 21 21 20 20 19 18 18 18 18 17 16 12 13 15 15 15 14 14 13 13 14 14 15 15 16 15 14 13 10 10 10 11 10 9 8 8 8 8 8 7
21 22 21 22 20 19 19 18 17 17 17 16 14 13 12 11 13 15 13 14 14 12 12 13 13 14 16 16 15 13 10 8 9 8 8 9 9 7 8 8 8 8 7
21 21 20 20 19 17 17 16 16 15 15 15 14 13 11 12 12 13 13 13 14 13 11 11 12 13 13 14 13 11 8 5 5 6 6 5 6 5 5 6 7 7 8
20 19 18 18 18 16 15 14 14 14 14 13 12 11 10 10 11 12 12 12 12 12 11 11 11 11 12 12 11 9 8 7 6 5 4 4 4 4 4 5 6 6 7
21 19 17 18 17 16 14 14 13 13 13 12 11 10 10 9 10 11 11 12 11 10 10 10 9 9 9 10 8 7 6 7 6 6 2 3 3 3 3 3 6 5 6
19 18 17 17 16 15 13 12 11 11 11 11 11 11 10 9 10 10 11 11 11 10 9 8 8 9 8 8 7 4 2 3 4 5 4 4 3 2 3 4 4 5 7
19 18 18 18 15 15 13 12 11 11 11 11 11 11 10 9 10 10 9 9 9 11 10 9 9 9 8 7 6 5 2 2 2 2 5 5 6 6 6 6 8 7 8
19 20 20 19 18 17 16 14 12 11 12 13 12 11 13 12 10 10 9 9 9 8 8 9 9 8 7 7 7 4 5 4 4 5 5 6 9 10 9 10 10 10 10
22 22 20 18 17 15 14 13 14 14 15 16 16 15 12 11 9 7 9 10 9 8 7 7 6 6 6 6 5 7 8 8 9 12 12 13 14 13 14 13 14 13 13
24 22 21 18 16 15 15 15 15 17 17 17 16 14 12 12 11 10 12 12 12 11 11 10 10 9 8 7 8 8 8 9 10 11 14 12 10 18 17 15 17 17 16
23 24 21 19 18 18 16 15 17 18 17 17 17 16 13 12 12 11 14 14 14 14 13 13 12 10 10 11 10 11 11 12 13 13 11 11 15 17 19 20 20 21 19
21 22 21 20 19 17 13 16 18 16 17 17 18 18 16 13 12 12 12 14 17 17 15 15 15 14 14 14 13 13 14 14 15 14 12 13 11 12 14 15 20 23 20
21 22 20 19 20 20 21 19 20 19 18 18 19 20 20 18 16 14 15 14 16 20 21 20 19 17 16 15 16 15 15 15 14 14 14 14 13 9 13 15 19 21 20
25 23 22 22 22 23 23 21 20 18 19 21 20 22 22 21 20 19 17 17 17 15 16 17 18 17 18 17 16 17 18 18 17 18 16 14 15 15 10 14 21 19 18
26 27 24 24 24 24 25 25 22 20 17 20 21 23 22 22 23 22 22 21 18 18 18 19 20 20 19 19 21 19 18 21 20 20 20 19 17 18 17 15 15 19 20
26 27 27 25 26 26 25 25 26 26 26 22 21 20 22 23 21 22 23 24 22 21 21 22 22 20 20 19 19 19 18 19 21 21 24 22 20 18 18 17 17 19 22
25 25 26 27 27 26 24 25 27 28 29 29 23 22 23 25 23 23 25 26 25 23 23 22 22 22 22 20 17 13 17 17 19 20 22 24 24 22 20 19 18 22 22
23 23 26 27 27 27 26 25 24 25 26 23 22 22 22 25 24 24 26 27 27 27 26 23 23 20 20 20 12 11 14 16 19 22 23 24 26 25 23 21 19 16 21
24 24 25 28 28 27 26 25 19 14 14 17 15 13 14 22 23 23 25 26 28 27 26 23 21 15 12 9 7 2 2 3 9 18 22 24 26 26 26 24 22 21 20
21 24 26 25 27 26 23 22 19 16 15 19 20 19 18 13 12 17 21 24 22 24 25 24 23 21 16 10 15 7 2 3 2 2 3 8 18 23 24 23 24 24 24
18 21 24 25 21 22 24 22 21 19 17 24 20 22 15 12 12 12 11 11 18 17 18 22 22 23 20 17 13 20 18 4 1 2 2 3 6 7 11 17 21 23 24
7 12 8 12 15 18 22 20 19 18 18 21 16 10 12 10 11 11 9 13 15 15 14 15 17 21 23 23 21 9 14 17 16 5 5 5 4 6 11 12 10 13 15
12 10 18 15 15 12 18 23 22 16 13 12 9 11 12 11 11 10 12 10 10 10 12 14 13 18 21 21 22 20 16 7 7 9 7 9 7 15 11 10 11 12 14
Wind_Direction
130 135 137 124 123 123 124 126 125 123 121 132 140 146 136 132 130 126 127 130 121 116 111 112 105 106 112 116 116 108 112 116 112 105 107 106 107 110 111 110 111 106 108
136 138 137 124 125 127 129 130 129 130 134 137 141 142 137 135 129 125 123 123 117 113 115 115 114 114 110 110 107 106 109 111 114 117 111 108 109 104 103 103 104 103 107
137 138 136 132 129 125 125 126 129 130 132 138 140 139 138 137 128 124 126 126 118 117 117 117 116 113 112 110 108 103 98 100 101 104 113 114 102 106 107 103 103 105 101
140 139 141 143 135 129 127 124 126 129 133 133 137 135 138 135 127 126 130 131 124 118 117 115 116 114 111 112 109 104 100 98 105 107 110 107 102 108 109 112 120 114 120
145 145 144 146 138 132 130 132 130 130 132 132 132 130 131 129 132 130 128 129 122 123 122 115 116 115 114 116 110 106 93 95 112 106 110 105 110 122 120 119 116 121 120
148 151 147 144 141 139 139 135 135 134 136 137 144 140 143 139 137 134 132 132 127 133 126 123 120 123 122 121 115 109 101 97 123 108 93 117 132 116 133 130 132 133 130
148 148 148 146 145 149 148 146 145 146 146 145 146 142 147 146 145 141 137 133 136 133 139 129 129 129 133 129 117 94 81 67 147 133 114 84 123 146 147 137 142 142 139
151 152 152 154 155 155 157 159 156 156 155 152 141 144 157 158 147 150 142 138 143 143 138 138 137 137 139 127 118 98 71 61 91 169 161 99 107 127 171 224 176 158 160
161 158 159 161 163 165 167 167 167 164 161 151 147 154 162 155 155 156 153 150 152 151 155 148 141 139 140 139 137 126 114 92 97 145 174 186 175 223 223 204 196 191 180
168 168 168 166 175 175 171 175 178 175 165 162 161 156 159 159 159 159 163 160 165 162 162 162 162 166 168 169 176 180 199 186 165 210 220 232 237 232 212 237 225 223 204
176 178 178 179 183 183 178 182 186 182 174 181 168 163 168 169 172 171 176 177 184 179 183 181 181 189 192 197 194 193 216 201 257 253 276 258 242 230 228 227 226 223 216
187 190 188 188 189 190 189 189 195 184 189 192 183 181 190 194 190 197 198 198 199 200 202 207 208 208 214 222 211 211 217 216 242 253 265 277 243 237 238 232 228 223 223
191 194 198 198 197 197 200 200 201 195 204 200 199 203 209 212 217 225 208 198 204 200 211 217 219 225 228 245 248 243 242 236 255 268 261 255 240 240 235 234 235 228 222
196 200 204 207 206 209 210 214 211 209 212 215 215 216 220 223 230 230 226 224 224 224 225 227 233 235 249 261 259 250 254 257 261 282 269 263 252 246 233 235 237 234 224
201 204 209 209 215 220 222 234 225 222 226 224 224 226 232 235 241 244 242 236 234 236 237 238 245 261 265 267 262 258 259 264 264 271 266 268 266 243 231 234 230 224 226
211 213 207 209 215 222 223 226 232 231 233 232 233 235 242 246 251 257 248 248 246 240 242 250 258 262 265 266 262 264 265 265 261 266 270 266 261 255 245 230 224 222 223
219 220 217 213 220 227 229 229 236 239 238 240 248 247 248 253 257 261 261 255 252 251 248 251 254 255 258 265 265 264 263 261 261 263 269 266 262 246 248 248 231 233 232
229 227 226 227 228 230 234 238 238 238 248 252 262 262 254 258 260 263 262 260 258 254 252 253 258 263 261 264 270 267 267 258 259 260 261 262 265 257 258 255 244 244 241
225 230 232 229 235 237 237 242 247 249 252 264 275 283 271 267 264 265 265 264 262 258 260 262 261 263 268 265 263 272 270 263 257 260 257 259 263 263 265 269 247 245 242
232 233 236 238 239 240 244 245 248 254 261 269 288 298 293 276 270 266 266 268 267 260 259 258 258 262 260 264 266 260 266 260 254 257 255 257 258 263 267 271 268 242 239
230 234 231 232 236 234 235 243 248 255 263 276 296 297 277 285 282 270 266 264 263 258 256 259 259 258 263 251 264 269 270 258 253 252 251 250 251 257 262 264 267 255 243
233 230 232 234 237 236 241 243 250 263 270 284 289 290 292 286 284 294 287 275 264 258 251 248 249 251 250 237 207 230 301 308 249 248 247 246 248 253 255 256 262 263 262
249 243 239 243 244 243 242 244 254 260 265 275 282 292 308 306 274 257 268 258 266 253 244 246 242 240 243 236 218 209 208 235 307 303 256 259 249 248 250 254 258 263 265
244 251 250 246 251 257 259 244 249 257 259 276 286 305 324 328 327 315 306 287 267 271 261 252 239 240 240 235 234 231 233 220 208 310 238 276 279 247 246 251 254 260 266
263 244 265 266 269 262 267 265 259 252 268 281 312 315 338 350 1 356 341 315 300 286 285 278 263 242 238 238 227 230 236 244 244 212 274 273 266 247 262 268 263 266 267
41 78 71 59 12 328 17 318 275 265 270 300 350 4 1 0 10 23 11 7 338 311 295 297 284 265 258 250 245 241 224 208 214 217 232 259 261 289 279 273 252 268 265